星链-31778 (STARLINK-31778 )

导读

STARLINK-31778是美国SpaceX公司星链星座的低轨互联网卫星,于2024年4月28日发射升空,是星链全球互联网星座部署计划的一环。该卫星运行于约550公里高度的近地轨道,飞行速度约7.6km/s,旨在为全球偏远、无基础设施覆盖地区提供高速宽带互联网接入服务,补充全球网络覆盖,同时支撑星链星座的大规模组网与服务能力扩展。

Basic Information
目录编号:
59602
目录名称:
STARLINK-31778
国际标识:
2024-080B
轨道中心:
EARTH
卫星名称:
星链-31778
卫星全名:
星链-31778 (STARLINK-31778 )
卫星状态:
在轨 (已飞行781 天)
发射日期:
2024-04-28 UTC
国别 :
美国 (US)
星等 :
--
Orbit Information
数据来源 国际轨道数据 AOE轨道数据
星历时间 2026-06-17T02:43:07+0800
1天前
查看轨道信息
2026-06-18T03:00:00+0800
8小时前
查看轨道信息
半长轴 6861.197km 6861.198km
偏心率 0.0001344 0.0001355
轨道倾角 43.000° 42.999°
近地点辐角 274.531° 257.470°
升交点赤经 195.150° 189.437°
平近点角 85.539° 272.889°
近地点 482.137km 482.131km
远地点 483.983km 483.991km
周期 94.267分钟 94.267分钟
每日圈数 15.275766 15.275761
Detailed Information
固有亮度:
5
最大亮度:
1.5
卫星平台:
Starlink v2.0 mini
覆盖范围:
全球
运营商:
太空探索技术公司
运营商所在国:
美国
制造商(研发单位):
太空探索技术公司
制造商所在国:
美国
使用方式:
暂无
Satellite Introduction
星链(Starlink)计划是由太空探索技术公司(SpaceX)提出的一个巨型低轨卫星互联网星座项目,计划在2019年至2024年间在太空搭建由约1.2万颗卫星组成的“星链”网络,其中1584颗将部署在地球上空550千米处的近地轨道,并从2020年开始工作。该卫星仍在工作。
2D Orbit Map
3D Orbit Map
Orbit Altitude Analysis Chart
Orbit Inclination Analysis Chart
Orbit Comprehensive Analysis Chart
View Comprehensive Chart